Queralbs (Ripollès)





Hora UTC 09:35
Temperatura 4.9 ºC
Humedad 66.0 %
Presión 1003.2 hPa
Pluja 0.2 mm
Velocidad viento 0.0 km/h
Dirección viento SSE
Radiación solar 0.0 W/m²

Datos diarios 2022-12-10



Hora UTC (invierno +1h; verano +2h)
Temperatura (ºC) Humedad (%) Presión (hPa) Velocidad viento (km/h) Precipitación (mm) Radiación solar (W/m²)
Hora UTC Aire Humedad Presión Vel. Dir. Vel. Max Dir. Intent. máx 5 min. Rad. Sol.
00:05 4.6 64.0 1000.4 0.0 NW 0.0 0.0 0.0
00:10 4.5 64.0 1000.4 0.0 NW 0.0 0.2 0.0
00:15 4.4 64.0 1000.4 0.0 NW 0.0 0.0 0.0
00:20 4.4 64.0 1000.5 0.0 NW 0.0 0.0 0.0
00:25 4.4 64.0 1000.4 0.0 NW 0.0 0.0 0.0
00:30 4.4 64.0 1000.4 0.0 NW 0.0 0.0 0.0
00:35 4.3 64.0 1000.3 0.0 NW 0.0 0.0 0.0
00:40 4.3 64.0 1000.4 0.0 NW 0.0 0.0 0.0
00:45 4.3 64.0 1000.4 0.0 NW 0.0 0.0 0.0
00:50 4.3 64.0 1000.4 0.0 NW 0.0 0.0 0.0
00:55 4.3 64.0 1000.3 0.0 NW 0.0 0.0 0.0
01:00 4.2 65.0 1000.2 0.0 NW 1.6 0.0 0.0
01:05 4.2 65.0 1000.2 0.0 NW 1.6 0.0 0.0
01:10 4.2 65.0 1000.2 0.0 NW 0.0 0.0 0.0
01:15 4.1 65.0 1000.2 0.0 NW 0.0 0.0 0.0
01:20 4.1 65.0 1000.2 0.0 NW 0.0 0.0 0.0
01:25 4.1 65.0 1000.2 0.0 NW 0.0 0.0 0.0
01:30 4.1 65.0 1000.3 0.0 NW 0.0 0.0 0.0
01:35 4.1 65.0 1000.4 0.0 NW 0.0 0.0 0.0
01:40 4.1 65.0 1000.3 0.0 NW 0.0 0.0 0.0
01:45 4.1 65.0 1000.3 0.0 NW 0.0 0.0 0.0
01:50 4.1 65.0 1000.4 0.0 NW 0.0 0.0 0.0
01:55 4.0 65.0 1000.4 0.0 NW 0.0 0.0 0.0
02:00 4.0 66.0 1000.5 0.0 NW 0.0 0.0 0.0
02:05 4.0 66.0 1000.5 0.0 NW 0.0 0.0 0.0
02:10 3.9 66.0 1000.5 0.0 NW 1.6 0.0 0.0
02:15 3.9 65.0 1000.5 0.0 NW 1.6 0.0 0.0
02:20 3.9 66.0 1000.6 0.0 NW 1.6 0.0 0.0
02:25 3.9 66.0 1000.5 0.0 NW 3.2 0.0 0.0
02:30 3.9 66.0 1000.4 0.0 NW 3.2 0.0 0.0
02:35 3.9 66.0 1000.5 0.0 NW 3.2 0.0 0.0
02:40 3.8 66.0 1000.4 0.0 NW 0.0 0.0 0.0
02:45 3.9 66.0 1000.6 0.0 NW 0.0 0.0 0.0
02:50 3.8 66.0 1000.6 0.0 NW 0.0 0.0 0.0
02:55 3.9 67.0 1000.5 0.0 NW 0.0 0.0 0.0
03:00 3.9 67.0 1000.4 0.0 NW 0.0 0.0 0.0
03:05 3.9 67.0 1000.4 0.0 NW 1.6 0.0 0.0
03:10 3.9 67.0 1000.4 0.0 NW 1.6 0.0 0.0
03:15 3.8 67.0 1000.4 0.0 NW 0.0 0.0 0.0
03:20 3.8 67.0 1000.5 0.0 NW 0.0 0.0 0.0
03:25 3.8 67.0 1000.4 0.0 NW 0.0 0.0 0.0
03:30 3.7 67.0 1000.4 0.0 NW 1.6 0.0 0.0
03:35 3.7 67.0 1000.4 0.0 NW 1.6 0.0 0.0
03:40 3.6 67.0 1000.3 0.0 NW 1.6 0.0 0.0
03:45 3.6 67.0 1000.2 0.0 NW 1.6 0.0 0.0
03:50 3.5 66.0 1000.2 0.0 NW 1.6 0.0 0.0
03:55 3.4 67.0 1000.2 0.0 NW 0.0 0.0 0.0
03:55 3.4 67.0 1000.3 1.6 NW 3.2 0.0 0.0
04:00 3.4 67.0 1000.3 0.0 NW 3.2 0.0 0.0
04:05 3.3 67.0 1000.5 0.0 NW 1.6 0.0 0.0
04:10 3.3 67.0 1000.7 0.0 NW 0.0 0.0 0.0
04:15 3.3 67.0 1000.6 0.0 NW 0.0 0.0 0.0
04:20 3.3 67.0 1000.6 0.0 NW 0.0 0.0 0.0
04:25 3.3 67.0 1000.6 1.6 NW 1.6 0.0 0.0
04:35 3.3 67.0 1000.6 0.0 NW 3.2 0.0 0.0
04:40 3.3 67.0 1000.6 0.0 NW 3.2 0.0 0.0
04:45 3.3 68.0 1000.6 0.0 NW 1.6 0.0 0.0
04:50 3.4 68.0 1000.7 0.0 NW 1.6 0.0 0.0
04:55 3.3 68.0 1000.6 0.0 NW 1.6 0.0 0.0
05:00 3.3 68.0 1000.6 1.6 NW 3.2 0.0 0.0
05:05 3.3 68.0 1000.8 0.0 NW 4.8 0.0 0.0
05:10 3.3 68.0 1000.7 0.0 NW 4.8 0.0 0.0
05:15 3.3 68.0 1000.9 0.0 NW 1.6 0.0 0.0
05:20 3.3 68.0 1000.9 0.0 NW 1.6 0.0 0.0
05:25 3.3 68.0 1001.0 6.4 WSW 6.4 0.0 0.0
05:30 3.3 68.0 1001.0 0.0 SE 6.4 0.0 0.0
05:35 3.3 68.0 1001.1 0.0 SE 3.2 0.0 0.0
05:40 3.3 69.0 1000.8 0.0 SE 3.2 0.0 0.0
05:45 3.3 68.0 1000.8 0.0 SW 9.7 0.0 0.0
05:50 3.3 68.0 1000.8 0.0 W 9.7 0.0 0.0
05:55 3.3 69.0 1001.0 0.0 W 6.4 0.0 0.0
06:00 3.3 68.0 1001.0 0.0 WSW 6.4 0.0 0.0
06:05 3.2 68.0 1001.2 0.0 WSW 1.6 0.0 0.0
06:10 3.1 68.0 1001.1 0.0 W 3.2 0.0 0.0
06:15 2.9 68.0 1001.3 0.0 W 4.8 0.0 0.0
06:20 3.0 69.0 1001.2 0.0 WSW 9.7 0.0 0.0
06:25 3.1 69.0 1001.3 0.0 WSW 9.7 0.0 0.0
06:30 3.1 68.0 1001.3 0.0 WSW 3.2 0.0 0.0
06:35 3.1 68.0 1001.3 0.0 WSW 6.4 0.0 0.0
06:40 3.1 68.0 1001.1 0.0 WSW 1.6 0.0 0.0
06:45 2.9 68.0 1001.3 0.0 WSW 1.6 0.0 0.0
06:50 2.8 68.0 1001.5 1.6 WSW 4.8 0.0 0.0
06:55 2.7 68.0 1001.5 0.0 W 4.8 0.0 0.0
07:00 2.6 68.0 1001.4 0.0 W 4.8 0.0 0.0
07:05 2.6 68.0 1001.5 0.0 W 0.0 0.0 0.0
07:10 2.4 68.0 1001.7 0.0 W 0.0 0.0 0.0
07:15 2.4 68.0 1001.9 0.0 W 0.0 0.0 0.0
07:20 2.3 68.0 1001.9 0.0 W 0.0 0.0 0.0
07:25 2.3 68.0 1001.8 0.0 W 1.6 0.0 0.0
07:30 2.2 68.0 1001.8 0.0 W 3.2 0.0 0.0
07:35 2.1 68.0 1001.9 0.0 W 3.2 0.0 0.0
07:40 2.0 68.0 1001.9 0.0 W 1.6 0.0 0.0
07:45 2.0 68.0 1002.0 0.0 W 1.6 0.0 0.0
07:50 1.9 68.0 1002.1 0.0 W 3.2 0.0 0.0
07:55 1.9 69.0 1002.0 1.6 W 3.2 0.0 0.0
08:00 1.9 69.0 1002.2 0.0 W 3.2 0.0 0.0
08:05 2.0 69.0 1002.1 0.0 W 3.2 0.0 0.0
08:10 2.1 69.0 1002.2 0.0 W 3.2 0.0 0.0
08:15 2.2 69.0 1002.2 0.0 W 1.6 0.0 0.0
08:20 2.4 70.0 1002.3 4.8 W 4.8 0.0 0.0
08:25 2.7 71.0 1002.5 4.8 E 9.7 0.0 0.0
08:30 2.9 71.0 1002.3 6.4 NE 8.0 0.0 0.0
08:35 3.3 71.0 1002.5 1.6 NE 8.0 0.0 0.0
08:40 3.6 71.0 1002.7 3.2 SSE 9.7 0.0 0.0
08:45 3.8 70.0 1002.6 0.0 SSE 9.7 0.0 0.0
08:50 4.0 70.0 1002.7 6.4 SSE 6.4 0.0 0.0
08:55 4.2 70.0 1002.8 0.0 SSE 4.8 0.0 0.0
09:00 4.5 70.0 1002.7 3.2 SSE 3.2 0.0 0.0
09:05 4.6 70.0 1002.7 0.0 SSE 3.2 0.0 0.0
09:10 4.7 69.0 1002.8 0.0 SSE 1.6 0.0 0.0
09:15 4.6 67.0 1002.9 0.0 SSE 0.0 0.0 0.0
09:20 4.5 66.0 1002.9 0.0 SSE 1.6 0.0 0.0
09:25 4.4 66.0 1003.1 0.0 SSE 3.2 0.0 0.0
09:30 4.6 66.0 1003.1 0.0 SSE 3.2 0.0 0.0
09:35 4.9 66.0 1003.2 0.0 SSE 3.2 0.0 0.0
Máxima 4.9 71.0 1003.2 6.4 SSE 9.7 0.2 0.0
Mínima 1.9 64.0 1000.2
Total 0.2